Regional Weather Roundup
Issued by NWS Northern Indiana

Home | Current Version | Previous Version | Text Only | Print | Product List | Glossary Off
Versions: 1 2 3 4 5 6 7 8 9 10 11 12 13 14 15 16 17 18 19 20 21 22 23 24 25 26 27 28 29 30 31 32 33 34 35 36 37 38 39 40 41 42 43 44 45 46 47 48 49 50

000
ASUS43 KIWX 041710
RWRIWX

KIWX WEATHER ROUNDUP
NATIONAL WEATHER SERVICE NORTHERN INDIANA
1200 PM EST SUN DEC 04 2016

NOTE: "FAIR" INDICATES FEW OR NO CLOUDS BELOW 12,000 FEET WITH NO
SIGNIFICANT WEATHER AND/OR OBSTRUCTIONS TO VISIBILITY.

* THESE STATIONS ARE NOT UNDER NWS QUALITY CONTROL. THEY ALSO MAY NOT
  REPORT WEATHER SUCH AS PRECIPITATION OR FOG.

INZ001>027-041800-
NORTHERN INDIANA

CITY           SKY/WX    TMP DP  RH WIND       PRES   REMARKS
GARY*          LGT SNOW  36  28  75 SE7       30.06F
VALPARAISO     LGT SNOW  35  29  78 E8        30.06F WCI  29
MICHIGAN CITY* CLOUDY    34  28  80 SE5       30.06F WCI  30
LAPORTE*       FLURRIES  37  34  91 E7        30.06F
KNOX*          CLOUDY    34  16  47 E7        30.06F WCI  28
SOUTH BEND     CLOUDY    34  28  79 E7        30.06F WCI  28
GOSHEN         CLOUDY    37  28  70 SE12      30.07F
MONTICELLO*    CLOUDY    37  28  72 E6        30.04F
LOGANSPORT*    CLOUDY    36  32  87 E10       30.05F
ROCHESTER*     CLOUDY    37  34  87 E8        30.05F
WARSAW*        CLOUDY    36  28  75 SE5       30.07F
ANGOLA*        SUNNY     36  28  75 SE8       30.08F
FORT WAYNE     CLOUDY    38  29  70 SE9       30.09F
HUNTINGTON*    CLOUDY    37  30  76 SE6       30.08F
PERU/GRISSOM   PTSUNNY   38  32  81 SE12      30.02F
MARION*        CLOUDY    37  31  79 SE12      30.06F

$$
INZ028>050-041800-
CENTRAL INDIANA

CITY           SKY/WX    TMP DP  RH WIND       PRES   REMARKS
LAFAYETTE      LGT RAIN  37  32  82 E8        30.03F
KOKOMO*        CLOUDY    38  32  79 E13       30.04F
MUNCIE*        CLOUDY    40  30  67 SE13      30.06F
INDIANAPOLIS   CLOUDY    40  31  70 SE13      30.02F

$$
MIZ043>046-050>051-056>058-064>065-071>073-077>080-041800-
SOUTHWEST LOWER MICHIGAN

CITY           SKY/WX    TMP DP  RH WIND       PRES   REMARKS
BATTLE CREEK   CLOUDY    35  27  72 SE7       30.10F WCI  29
BENTON HARBOR  CLOUDY    36  27  69 SE9       30.08F
COLDWATER*     PTSUNNY   37  27  68 E7        30.08F
HILLSDALE*     CLOUDY    34  28  80 SE7       30.09F WCI  28
HOLLAND        CLOUDY    36  27  69 SE10      30.10F
GRAND RAPIDS   CLOUDY    36  25  64 SE6       30.12F
KALAMAZOO      CLOUDY    36  26  67 SE5       30.09F
STURGIS*       CLOUDY    37  28  70 SE9       30.07F
THREE RIVERS*  PTSUNNY   37  29  73 SE7       30.08F

$$
OHZ001>008-015>018-024>025-041800-
NORTHWEST OHIO

CITY           SKY/WX    TMP DP  RH WIND       PRES   REMARKS
WAUSEON*       FAIR      37  30  75 SE10      30.12F
DEFIANCE       CLOUDY    39  29  67 E9        30.11F
FINDLAY        MOSUNNY   39  28  64 SE10      30.12F
TOLEDO EXPRESS PTSUNNY   37  29  72 SE6       30.14F
TOLEDO METCALF PTSUNNY   39  29  67 SE9       30.15F
LIMA           CLOUDY    38  31  76 SE10      30.10F

$$
AND FOR LAKE MICHIGAN COASTAL AND OPEN LAKE BUOY OBSERVATIONS

STATION/POSITION TEMP    WIND        PRES    VSBY  WAVE
                 AIR SEA DIR/SP/G                  HT/PER
                 (F)     (DEG/KT/KT) (MB)    (MI)  (FT/S)
CALUMET HARBOR    34     130/  8/ 11 1017.4F
BURNS HARBOR      34     100/  8/ 11 1018.3F
SAINT JOSEPH      36     190/  2/  7 1017.9
SOUTH LAKE BUOY   38 48  140/ 14/ 16 1018.4F         1/ 3

$$
&&



USA.gov is the U.S. government's official web portal to all federal, state and local government web resources and services.